sat.trackr.live / text

‹ back to catalog

STARLINK-31129

NORAD 58624 · 2023-203G

PAYLOAD ACTIVE UNKNOWN

§ Identity

Operator
Country
US
Launch date
2023-12-23
Launch site
AFETR
Launch vehicle
Mass (kg)
RCS (m²)

Purposes: comms

External: N2YO · Heavens-Above · Gunter

§ Orbital elements

Epoch: 2026-05-25T00:15:56.814336Z

Period
94.26 min
Inclination
43.0033°
Eccentricity
0.0001133
Mean motion
15.27636227 rev/d
Perigee alt
482.1 km
Apogee alt
483.7 km
Semi-major
6,861.0 km
B*
7.9635e-4
RAAN
356.0834°
Arg perigee
268.5279°
Mean anomaly
91.5443°
Rev number
13,523

§ Raw data

STARLINK-311291 58624U 23203G   26145.01107424  .00021754  00000+0  79635-3 0  99932 58624  43.0033 356.0834 0001133 268.5279  91.5443 15.27636227135237

JSON: /api/v1/satellites/58624 · /tle

For live sub-satellite position, see the globe view (requires WebGL).

§ Visibility from observer

Set your observer location to see the next 7 days of passes ≥ 10°. The values pass through the URL so the page stays shareable.

No JS? Fill the form by hand. The geolocation button needs JavaScript.